SP5IZJ-2 Weather Reports


time (UTC)temp
C
wind
direction
speed
KPH
gust
KPH
rain 1hr
cm
rain 24hr
cm
rain mn
cm
humidity
%
barometer
mb
20260504033143 10 0 1.6 6.4 0.00 0.00 0.00 61 1005.7
20260504031743 8 0 0.0 4.8 0.00 0.00 0.00 63 1005.7
20260504030344 8 0 0.0 0.0 0.00 0.00 0.00 64 1005.7
20260504023544 8 0 0.0 0.0 0.00 0.00 0.00 62 1005.7
20260504014646 10 0 0.0 6.4 0.00 0.00 0.00 60 1005.9
20260504013252 10 0 0.0 6.4 0.00 0.00 0.00 61 1005.9
20260504011146 10 359 0.0 0.0 0.00 0.00 0.00 60 1005.8
20260504010451 100 359 0.0 0.0 0.00 0.00 0.00 100
20260504005747 10 0 0.0 0.0 0.00 0.00 0.00 59 1005.9
20260504003647 10 0 0.0 0.0 0.00 0.00 0.00 59 1006.0
20260504002248 10 0 0.0 0.0 0.00 0.00 0.00 59 1005.9
20260504001548 10 0 0.0 0.0 0.00 0.00 0.00 59 1005.8
20260504000148 10 0 0.0 0.0 0.00 0.00 0.00 58 1005.8
20260503235448 10 0 0.0 0.0 0.00 0.00 0.00 58 1005.8
20260503233349 10 0 0.0 0.0 0.00 0.00 0.00 57 1006.0
20260503225150 11 0 0.0 0.0 0.00 0.00 0.00 56 1006.0
20260503223750 11 0 0.0 0.0 0.00 0.00 0.00 55 1006.0
20260503223101 11 0 0.0 0.0 0.00 0.00 0.00 55 1006.0
20260503222351 11 0 0.0 0.0 0.00 0.00 0.00 55 1006.1
20260503221651 11 0 0.0 0.0 0.00 0.00 0.00 54 1006.1
20260503220951 11 0 0.0 0.0 0.00 0.00 0.00 52 1006.3
20260503220251 11 0 0.0 0.0 0.00 0.00 0.00 51 1006.2
20260503215602 11 0 0.0 0.0 0.00 0.00 0.00 50 1006.2
20260503214851 11 0 0.0 0.0 0.00 0.00 0.00 49 1006.2
20260503212054 12 0 0.0 0.0 0.00 0.00 0.00 48 1006.0
20260503210652 12 0 0.0 0.0 0.00 0.00 0.00 48 1006.3
20260503204555 13 0 0.0 0.0 0.00 0.00 0.00 45 1006.1
20260503203858 13 0 0.0 0.0 0.00 0.00 0.00 45 1006.0
20260503202454 14 0 0.0 0.0 0.00 0.00 0.00 45 1006.1
20260503201054 14 0 0.0 0.0 0.00 0.00 0.00 44 1005.9
20260503194954 15 0 0.0 0.0 0.00 0.00 0.00 43 1005.9
20260503192155 15 0 0.0 0.0 0.00 0.00 0.00 41 1006.2
20260503191500 15 0 0.0 0.0 0.00 0.00 0.00 41 1006.0
20260503190058 16 0 0.0 0.0 0.00 0.00 0.00 40 1005.9
20260503182607 17 0 0.0 0.0 0.00 0.00 0.00 35 1005.9
20260503181157 18 0 0.0 0.0 0.00 0.00 0.00 32 1005.6
20260503180542 19 0 0.0 0.0 0.00 0.00 0.00 31 1005.7
20260503174400 22 0 0.0 0.0 0.00 0.00 0.00 28 1005.5
20260503171603 27 338 4.8 14.5 0.00 0.00 0.00 23 1005.5
20260503170905 27 338 6.4 12.9 0.00 0.00 0.00 23 1005.5
20260503170159 28 338 8.0 14.5 0.00 0.00 0.00 23 1005.5
20260503120110 27 0 19.3 32.2 0.00 0.00 0.00 23 1007.9
20260503072813 21 0 22.5 37.0 0.00 0.00 0.00 36 1010.5
20260503072113 21 0 22.5 37.0 0.00 0.00 0.00 36 1010.6
20260503071413 21 0 22.5 33.8 0.00 0.00 0.00 37 1010.5
20260503070713 21 0 22.5 33.8 0.00 0.00 0.00 37 1010.5
20260503053620 20 0 0.0 4.8 0.00 0.00 0.00 47 1010.8
20260503052218 18 0 1.6 8.0 0.00 0.00 0.00 48 1010.8
20260503051523 18 0 1.6 8.0 0.00 0.00 0.00 48 1010.8
20260503044721 17 359 0.0 0.0 0.00 0.00 0.00 55 1011.0
20260503035820 6 90 0.0 0.0 0.00 0.00 0.00 74 1011.2
20260503034418 6 90 0.0 0.0 0.00 0.00 0.00 73 1011.3
20260503033719 6 90 0.0 0.0 0.00 0.00 0.00 73 1011.0